Location: Lansingburgh
(42.7845°N, 73.6696°W)
Time: 05:02:18
(UTC+00:00)

Cosmos 1339 Rocket - Pass Details

Date: 24 January 2020
Orbit: 941 x 1006 km, 82.9° (Epoch: 18 February)

Event Time Altitude Azimuth Distance (km) Brightness Sun altitude
Rises 23:07:53 0° 353° (N) 3,617 7.4 -13.1°
Reaches altitude 10° 23:10:23 10° 355° (N) 2,671 6.7 -13.5°
Maximum altitude 23:16:29 77° 81° (E) 977 4.4 -14.6°
Drops below altitude 10° 23:22:37 10° 168° (SSE) 2,684 6.8 -15.7°
Sets 23:25:08 0° 170° (S) 3,635 7.5 -16.2°
